This is the latest recevied weather packets stored in our database for station/object OK2JF-6. If no packets are shown the sender has not sent any weather packets the latest 10 day(s).
| Time | Temp. | Humidity | Pressure | Rain* | Wind** | Luminosity | Snow |
|---|---|---|---|---|---|---|---|
| 1777246218 | 0.56° C | 78% | 1095 hPa | 0 mm | - | 0 W/m² | - |
| 1777245798 | 1.11° C | 78% | 1094.7 hPa | 0 mm | - | 0 W/m² | - |
| 1777245243 | 1.11° C | 78% | 1094.9 hPa | 0 mm | - | 0 W/m² | - |
| 1777244883 | 1.67° C | 78% | 1094.8 hPa | 0 mm | - | 0 W/m² | - |
| 1777244838 | 1.67° C | 77% | 1094.8 hPa | 0 mm | - | 0 W/m² | - |
| 1777243384 | 1.67° C | 78% | 1095 hPa | 0 mm | - | 0 W/m² | - |
| 1777243083 | 1.67° C | 78% | 1094.6 hPa | 0 mm | - | 0 W/m² | - |
| 1777242963 | 1.67° C | 75% | 1094.8 hPa | 0 mm | - | 0 W/m² | - |
| 1777242783 | 1.67° C | 75% | 1094.7 hPa | 0 mm | - | 0 W/m² | - |
| 1777242497 | 2.22° C | 75% | 1094.8 hPa | 0 mm | - | 0 W/m² | - |
| 1777241883 | 2.22° C | 76% | 1094.9 hPa | 0 mm | - | 0 W/m² | - |
| 1777241838 | 2.22° C | 76% | 1095 hPa | 0 mm | - | 0 W/m² | - |
| 1777241283 | 2.22° C | 74% | 1094.9 hPa | 0 mm | - | 0 W/m² | - |
| 1777241117 | 2.22° C | 73% | 1094.8 hPa | 0 mm | - | 0 W/m² | - |
| 1777240384 | 2.78° C | 73% | 1094.8 hPa | 0 mm | - | 0 W/m² | - |
| 1777239424 | 2.78° C | 72% | 1094.8 hPa | 0 mm | - | 0 W/m² | - |
| 1777238943 | 3.33° C | 72% | 1094.8 hPa | 0 mm | - | 0 W/m² | - |
| 1777238823 | 3.33° C | 72% | 1094.7 hPa | 0 mm | - | 0 W/m² | - |
| 1777238703 | 3.33° C | 72% | 1094.8 hPa | 0 mm | - | 0 W/m² | - |
| 1777238647 | 3.33° C | 72% | 1094.8 hPa | 0 mm | - | 0 W/m² | - |
| 1777238477 | 3.33° C | 72% | 1094.9 hPa | 0 mm | - | 0 W/m² | - |
| 1777238164 | 3.33° C | 71% | 1094.7 hPa | 0 mm | - | 0 W/m² | - |
| 1777237984 | 3.33° C | 71% | 1095.1 hPa | 0 mm | - | 0 W/m² | - |
| 1777237563 | 3.89° C | 70% | 1095 hPa | 0 mm | - | 0 W/m² | - |
| 1777237203 | 3.89° C | 69% | 1094.7 hPa | 0 mm | - | 0 W/m² | - |
* Rain latest hour (hover to see other rain measurements)
** Current wind speed in m/s (hover to see current wind gust speed)